Regional Weather Roundup
Issued by NWS

Home | Current Version | Previous Version | Graphics & Text | Print | Product List | Glossary On
Versions: 1 2 3 4 5 6 7 8 9 10 11 12 13 14 15 16 17 18 19 20 21 22 23 24 25 26 27 28 29 30 31 32 33 34 35 36 37 38 39 40 41 42 43 44 45 46 47 48 49 50
000
ASUS45 KPSR 300200
RWRAZ

ARIZONA HOURLY REGIONAL WEATHER ROUNDUP
NATIONAL WEATHER SERVICE PHOENIX AZ
700 PM MST FRI MAY 29 2015

NOTE: FAIR INDICATES FEW OR NO CLOUDS BELOW 12,000 FEET WITH NO
SIGNIFICANT WEATHER AND/OR OBSTRUCTIONS TO VISIBILITY.

AZZ001>003-036-300300-
NORTHWEST ARIZONA

CITY           SKY/WX    TMP DP  RH WIND       PRES   REMARKS
KINGMAN        CLEAR     87  13   6 SW15      29.98R
$$

AZZ004>008-015-016-018-300300-
NORTH CENTRAL ARIZONA

CITY           SKY/WX    TMP DP  RH WIND       PRES   REMARKS
GRAND CANYON   MOCLDY    69  38  32 CALM      30.21S
WILLIAMS       PTCLDY    72  32  23 SE6       30.27R
PRESCOTT       CLEAR     79  23  12 SW9       30.09R
FLAGSTAFF      NOT AVBL
PAYSON         PTCLDY    81  21  11 SW7       30.11R
PAGE           PTCLDY    80  36  20 NE9       30.07R
$$

AZZ009>014-017-300300-
NORTHEAST ARIZONA

CITY           SKY/WX    TMP DP  RH WIND       PRES   REMARKS
WINSLOW        NOT AVBL
SAINT JOHNS    CLEAR     77  27  15 N8        30.12R
WINDOW ROCK    PTCLDY    70  30  22 N9        30.22R
$$

AZZ023-300300-
GREATER PHOENIX AREA

CITY           SKY/WX    TMP DP  RH WIND       PRES   REMARKS
PHOENIX        PTCLDY   100  19   5 W10       29.79R
GLENDALE       PTCLDY    99  18   5 S8        29.81
DEER VALLEY    CLEAR     96  21   6 W10       29.82R
SCOTTSDALE     CLEAR     97  20   6 SW6       29.83S
MESA-GATEWAY   CLEAR     97  25   7 CALM      29.84R
CHANDLER       PTCLDY    97  27   8 NW8       29.81R
$$

AZZ027-028-300300-
SOUTHWEST MARICOPA COUNTY AND PINAL COUNTY

CITY           SKY/WX    TMP DP  RH WIND       PRES   REMARKS
CASA GRANDE    CLEAR     97  32  10 CALM      29.82R
$$

AZZ503-504-507>509-300300-
SOUTHEAST ARIZONA

CITY           SKY/WX    TMP DP  RH WIND       PRES   REMARKS
TUCSON         CLEAR     94  26   9 N10       29.90R
RYAN FIELD       N/A     95  32  11 NW12G18   29.89R
NOGALES        CLEAR     87  24  10 SW9       29.99R
SIERRA VISTA   CLEAR     84  25  11 W12       30.05R
SAFFORD        MOCLDY    92  20   7 NW9       29.89R
$$

AZZ020-021-025-026-031-300300-
SOUTHWEST ARIZONA

CITY           SKY/WX    TMP DP  RH WIND       PRES   REMARKS
YUMA           NOT AVBL
$$

CAZ031-033-041-043-047-048-061-300300-
SOUTHERN CALIFORNIA

CITY           SKY/WX    TMP DP  RH WIND       PRES   REMARKS
DOWNTOWN L.A.  MOSUNNY   67  58  72 VRB3      29.89R
L.A. AIRPORT   PTSUNNY   62  58  86 W14       29.91R
SAN DIEGO      MOCLDY    65  55  70 W7        29.92R
BURBANK        MOSUNNY   74  56  53 S12       29.88R
ONTARIO        MOCLDY    81  55  40 SW9       29.87S
RIVERSIDE      PTCLDY    81  50  33 W9        29.87R
PALM SPRINGS   PTCLDY    97  42  15 E9        29.79S
EL CENTRO NAS  CLEAR     95  41  15 E9        29.75S
IMPERIAL       CLEAR     98  36  11 SE8       29.74S
BLYTHE         CLEAR     98  32  10 S13       29.77R
$$

NVZ020-UTZ003-300300-
SOUTHERN NEVADA-UTAH

CITY           SKY/WX    TMP DP  RH WIND       PRES   REMARKS
LAS VEGAS      NOT AVBL
SALT LAKE CITY MOCLDY    74  43  32 N6        30.10S
$$

NMZ009-TXZ055-300300-
NEW MEXICO-WEST TEXAS

CITY           SKY/WX    TMP DP  RH WIND       PRES   REMARKS
ALBUQUERQUE    MOCLDY    77  29  17 N17       30.11S
EL PASO        PTCLDY    90  20   7 W10       29.94R
$$


........................KEY........................
SKY/WX - SKY CONDITION/WEATHER
TMP    - TEMPERATURE IN FAHRENHEIT
DP     - DEW POINT IN FAHRENHEIT
RH     - RELATIVE HUMIDITY IN PERCENT
WIND   - DIRECTION AND SPEED IN MILES PER HOUR (MPH)
VRB    - VARIABLE WIND DIRECTION
PRES   - MEAN SEA LEVEL PRESSURE IN INCHES OF MERCURY
         F - FALLING PRESSURE   R - RISING PRESSURE
         S - STEADY PRESSURE
VSB    - VISIBILITY IN MILES
HX     - HEAT INDEX IN FAHRENHEIT
WCI    - WIND CHILL INDEX IN FAHRENHEIT
TC     - TEMPERATURE IN CELSIUS WHICH IS ALSO KNOWN AS
         TEMPERATURE IN CENTIGRADE
AFB    - AIR FORCE BASE
         LUKE AFB IS LUKE AIR FORCE BASE
         DAVIS-MONTHAN IS DAVIS-MONTHAN AIR FORCE BASE
NAS    - NAVAL AIR STATION
         EL CENTRO NAS IS EL CENTRO NAVAL AIR STATION
N/A    - NOT AVAILABLE




USA.gov is the U.S. government's official web portal to all federal, state and local government web resources and services.